Location: Altenhof
(50.2418°N, 10.8789°E)
Time: 08:46:19
(UTC+00:00)

SKYMED 2 - Pass Details

Date: 18 February 2020
Orbit: 621 x 623 km, 97.9° (Epoch: 27 March)

Event Time Altitude Azimuth Distance (km) Brightness Sun altitude
Rises 05:05:49 0° 190° (S) 2,894 6.9 -13.0°
Reaches altitude 10° 05:08:11 10° 201° (SSW) 1,992 6.0 -12.6°
Maximum altitude 05:12:04 32° 264° (W) 1,087 4.3 -12.0°
Drops below altitude 10° 05:15:59 10° 328° (NNW) 2,007 5.8 -11.4°
Sets 05:18:24 0° 339° (NNW) 2,919 6.7 -11.0°
